Tracking 35334 objects as of 13-Sep-2026
HD Live streaming from Space Station
objects crossing your sky now

FALCON 9 DEB


FALCON 9 DEB is no longer on orbit


NORAD ID: 52597
Int'l Code: 2022-051BJ
Launch date: May 13, 2022
Source: United States (US)
Launch site: AIR FORCE WESTERN TEST RANGE (AFWTR)
Decay date: 2022-06-25

Note: This is SATELLITE DEBRIS
Your satellite tracking list
Your tracking list is empty




NASA's NSSDC Master Catalog

Two Line Element Set (TLE):
1 52597U 22051BJ  22175.75941921  .11462474  12561-4  17055-3 0  9992
2 52597  53.2101  77.7052 0005599 258.8293 101.2130 16.48361516  7179
Source of the keplerian elements: AFSPC